Погода в Коркодоне

Погода в Коркодоне : погода сейчас, прогноз погоды и архив. Всё, что Вы хотите узнать о погоде в Коркодоне!

Поиск расширенной информации на нашем сайте:

Другие новости

Новости СМИ2

Главная страница сайта

Новости сайта

02.10.2013

Напоминаем, что на нашем новом сайте вы можете получить высокодетализированные прогнозы погоды по пунктам России, СНГ и мира (включающие важные для авиации метеовеличины, такие как направление и скорость ветра, видимость, явления погоды, количество и форма облачности, нижняя и верхняя граница облачности), а также ознакомиться с разнообразными материалами по авиационной метеорологии и подборкой полезных ссылок на эту тему.

Сайт Метеоцентр.Азия посвящён разработке технологий оптимизации авиаметеорологического обслуживания, включая проектирование и перспективное создание нескольких автоматизированных авиаметеорологических систем:
- система выпуска высокодетальных прогностических карт явлений погоды для нижнего воздушного пространства по России и ближнему зарубежью;
- система верификации прогнозов TAF (выпускаемых синоптиками официальных АМСГ РФ и ближнего зарубежья) и AUTOTAF (выпускаемых сайтом Метеоцентр.Азия) - выявление ошибок, онлайн-сопоставление с фактической погодой METAR, автоматическое внесение коррективов в прогнозы при резком отклонении фактической погоды от прогноза, подсчёт оправдываемости прогнозов по элементам и в целом;
- система обработки, анализа и отображения авиаметеорологической информации для применения провайдерами метеорологической информации.

Рекомендуем: детское кино Отечественное онлайн.

Погода в Коркодоне - сегодня

Время (UTC), дата Ветер
(°,м/с) 
Видим.   Явления Облачность Т
(°С)
Тd
(°С)
f(%) Тe
(°С)
Pmin
(гПа)
dP
(гПа)
Po
(мм)
O2
(г/м3)
Тmin Tmax R s Состояние
почвы
21 25.05.17 140 (ЮВ) 20000 м    3/0 верхняя 
[Ci fib]
+13.1 +1.5 45 +13  994.8  -0.3  737  283  +3.3      мокрый или
старый снег
10-40% 
00 26.05.17 240 (ЮЗ) 20000 м    3/3 1000 м 
[Cu Sc]
+15.9 +2 39 +16  993.7  -0.9  737  280           
03 26.05.17 150 (ЮВ) 20000 м  слаб. ливневой дождь  9/9 1000 м кучево-дожд. 
[Cb cap]
+12.5 +0.9 45 +12  994.9  737  284           
06 26.05.17 270 (З) 20000 м    10/10 1000 м кучево-дожд. 
[Cb cap]
+9.3 +3 65 +10  995.8  0.3  738  287           
09 26.05.17 130 (ЮВ) 20000 м  слаб. ливневой дождь  10/10 600 м кучево-дожд. 
[Cb cap]
+8 +5.6 85 +9  995.3  0.5  738  288    +16.1  0.5     
12 26.05.17 тихо ()   20000 м  слаб. ливневой дождь  10/10 300 м кучево-дожд. 
[Cb cap]
+5.8 +5.5 98 +6               
15 26.05.17 350 (С) 20000 м  {ливн. осадки}  10/10 300 м кучево-дожд. 
[Cb cap]
+5.2 +3.8 91 +6  997.8  0.2  739  292           
18 26.05.17 300 (СЗ) 20000 м  {ливн. осадки}  10/10 200 м кучево-дожд. 
[Cb cap]
+5.3 +4.4 94 +6  998.6  0.9  740  292           
21 26.05.17 270 (З) 20000 м    10/10 200 м кучево-дожд. 
[Cb cap]
+5.2 +3.8 91 +4  999.8  1.1  741  292  +5    мокрый или
старый снег
10-40% 
03 27.05.17 270 (З) 20000 м  слаб. ливневой дождь  10/10 300 м кучево-дожд. 
[Cb cap]
+6.7 +4.1 83 +6  1001.5  0.8  742  291           
06 27.05.17 110 (В) 10 км  слаб. ливневой дождь  10/10 600 м кучево-дожд. 
[Cb cap]
+6.9 +4.6 85 +7  1001.7  0.2  742  291           
12 27.05.17 тихо ()   20000 м  {ливн. осадки}  8/8 600 м кучево-дожд. 
[Cb cap]
+5.2 +4.3 94 +5  1003.3  0.6  743  293           
15 27.05.17 300 (СЗ) 20000 м  местами туман поземный  5/5 1000 м кучево-дожд. 
[Cb cap]
+1.4 +1.1 98 +2  1004.1  0.7  744  298           
18 27.05.17 310 (СЗ) 20000 м  местами туман поземный  3/0 верхняя 
[Ci fib]
+0.5 +0.5 100 +1  1004.6  0.4  744  299           
21 27.05.17 250 (З) 20000 м    3/0 верхняя 
[Ci fib]
+5.9 +1.9 75 +7  1004.7  0.4  745  293  -0.6    мокрый или
старый снег
10-40% 
00 28.05.17 200 (Ю) 20000 м    4/3 1000 м верхняя 
[Cu med, cong|Ci fib]
+12.4   1003.9  -0.6  744             
03 28.05.17 140 (ЮВ) 20000 м    6/6 1000 м 
[Cu Sc]
+15.6 -0.9 32 +17  1003.3  -0.4  744  284           
06 28.05.17 240 (ЮЗ) 20000 м    8/8 1000 м 
[Cu Sc]
+15.4 -2.4 29 +16  1003.4  744  284           
12 28.05.17 020 (С) 20000 м    4/4 1000 м 
[Sc]
+10.1 -2.5 41 +10  1008.3  3.6  747  291           
15 28.05.17 010 (С) 20000 м    9/9 1000 м 
[Sc]
+7.1 -5.1 41 +7  1010.5  749  295           
18 28.05.17 030 (СВ) 20000 м    5/5 1000 м 
[Sc]
+3.3 -3.1 63 +4  1013.9  3.2  751  299           
21 28.05.17 330 (СЗ) 20000 м    4/4 1000 м 
[Sc]
+7.6 -2.4 49 +8  1014.1  0.4  752  295  +1.5      мокрый или
старый снег
10-40% 
00 29.05.17 280 (З) 20000 м    ясно 
+10.3 -3.3 38 +10  1013.8  -0.2  751  292           
03 29.05.17 360 (С) 20000 м    3/3 1000 м 
[Cu med, cong]
+12 -3.5 34 +12  1013.4  -0.3  751  290           
06 29.05.17 360 (С) 20000 м    5/5 1000 м 
[Cu med, cong]
+11.9 -4.1 32 +12  1013.1  -0.3  751  290           
Время (UTC), дата Ветер
(°,м/с) 
Видим.   Явления Облачность Т
(°С)
Тd
(°С)
f(%) Тe
(°С)
Pmin
(гПа)
dP
(гПа)
Po
(мм)
O2
(г/м3)
Тmin Tmax R s Состояние
почвы

Для получения пояснительной информации подведите курсор к названию столбца.

ПОГОДА в Коркодоне - архив

Всё, что Вы хотите узнать о погоде в Коркодоне - удобно и подробно!

Выберите нужную дату (начиная с 1 января 2015* года) и нажмите кнопку "Найти".
Будут отображены архивные сводки погоды по пункту Коркодон, начиная с указанной даты.


Отображать данные в формате CSV (для использования в таблицах Excel)


Внимание! Наш архив погоды предназначен исключительно для личного некоммерческого использования в познавательных целях. Если Вам необходимы официальные справки о состоянии погоды (для производственных, юридических, коммерческих и т.п. целей), обращайтесь в органы Росгидромета.

*Примечание: данная дата относится к архиву по метеостанциям СССР (Россия, СНГ, Балтия).
Архив по метеостанциям Зарубежной Европы и Азии (кроме Китая) хранится 10 дней, по другим регионам земного шара (Китай, Африка, Америка, Австралия, Океания) - 1 день.

Коркодон - район местоположения метеостанции


Название, широта, долгота, высота метеостанции:
Коркодон 64.7°ш. 154.1°д. 101 м над ур. моря [Российская Федерация]

Дополнительная информация

В oтличие oт бoльшинства пoгoдных сайтoв мы публикуем пoдрoбную метеoинфoрмацию в детальнoм прoфессиoнальнoм фoрмате.

Характеристики температуры и влажнoсти вoздуха измеряются на высoте 2 м в тени вдали oт зданий и деревьев.
Скoрoсть ветра измеряется на высoте 10 м (на урoвне рoста челoвека скoрoсть ветра ниже в 1.5-2 раза). Если метеoстанция нахoдится в гoрoде или в лесу, тo скoрoсть ветра занижена на 2-4 м/с пo сравнению с oткрытым местoм. Скoрoсть ветра над акватoриями крупных рек и oзёр, а также на вершинах хoлмoв на 2-5 м/с выше, чем в oбычных услoвиях.
Атмoсфернoе давление в разных тoчках местнoсти мoжет значительнo oтличаться oт давления на метеoстанции, в зависимoсти oт услoвий рельефа (при пoдъёме на 10 м давление пoнижается примернo на 1 мм рт.ст.).